Tracking 30995 objects as of 5-Jul-2025
HD Live streaming from Space Station
objects crossing your sky now

STARLINK-30434

Track STARLINK-30434 now!
10-day predictions
STARLINK-30434 is classified as:


NORAD ID: 57875
Int'l Code: 2023-144M
Perigee: 565.2 km
Apogee: 567.2 km
Inclination: 43.0 °
Period: 95.8 minutes
Semi major axis: 6937 km
RCS: Unknown
Launch date: September 16, 2023
Source: United States (US)
Launch site: AIR FORCE EASTERN TEST RANGE (AFETR)
Your satellite tracking list
Your tracking list is empty




NASA's NSSDC Master Catalog

Two Line Element Set (TLE):
1 57875U 23144M   25186.48505571  .00000343  00000-0  40456-4 0  9996
2 57875  43.0027 190.8031 0001430 294.0355  66.0338 15.02537395100432
Source of the keplerian elements: AFSPC